[[{"header":{"parameterUnit":"m.s-1","parameterCategory":2,"la1":30.2991,"la2":30.254,"lo1":-89.0895,"lo2":-89.0444,"dy":0.0017,"dx":0.0017,"nx":28,"ny":28,"refTime":"2024-02-03T09:00:00:Z","depth":"0","parameterNumber":2,"parameterNumberName":"U-component_of_CURRENTS"},"data":[0,0,0,0,0,0,0,0,0,0,0,0,0,0,0,0,0,0,0,0,0,0,0,0,0,0,0,0,0,0,0,0,0,0,0,0,0,0,0,0,0,0,0,0,0,0,0,0,0,0,0,0,0,0,0,0,0,0,0.1215,0.1217,0,0.1375,0.1377,0.1379,0.1434,0.1433,0.1433,0.1432,0.1602,0.1607,0.1612,0,0,0,0,0,0,0,0,0,0,0,0,0,0.1005,0.1008,0.1215,0.1217,0.1219,0.1375,0.1377,0.1379,0.1434,0.1433,0.1433,0.1432,0.1601,0.1607,0.1613,0,0,0,0,0,0,0,0,0,0,0,0,0,0.1124,0.1009,0.1214,0.1264,0.127,0.1374,0.1377,0.138,0.1434,0.1433,0.1432,0.1431,0.1599,0.1606,0.1614,0.1683,0,0,0.1637,0.1641,0,0,0,0,0,0,0,0,0.1117,0.1132,0.1255,0.1261,0.1268,0.1383,0.1366,0.1481,0.1435,0.1373,0.1432,0.1431,0.153,0.1543,0.1577,0.1691,0.1698,0.1638,0.1643,0.1646,0.1648,0,0,0,0,0,0,0,0.1109,0.1126,0.1279,0.1257,0.1265,0.1295,0.1311,0.1388,0.1456,0.1378,0.1382,0.1399,0.1534,0.1569,0.1581,0.17,0.1638,0.1645,0.165,0.1653,0.2016,0.202,0,0,0,0,0,0,0.1087,0.1118,0.1274,0.1284,0.1188,0.13,0.1317,0.1348,0.1455,0.147,0.14,0.1401,0.1556,0.1572,0.1587,0.1765,0.1646,0.1653,0.1658,0.2011,0.2017,0.2022,0,0,0,0,0,0,0.1082,0.11,0.1267,0.1203,0.1226,0.1304,0.1338,0.1351,0.1395,0.1472,0.1487,0.1431,0.1556,0.1577,0.1702,0.1768,0.1657,0.1664,0.2005,0.2013,0.2019,0.2063,0,0,0,0,0,0,0.1076,0.1098,0.1111,0.1202,0.1229,0.1348,0.134,0.1355,0.1407,0.141,0.1504,0.1518,0.1557,0.169,0.1709,0.1777,0.167,0.1999,0.2008,0.2017,0.2056,0.2071,0.2085,0,0,0,0,0,0.1068,0.111,0.1111,0.1129,0.1245,0.135,0.1368,0.1418,0.1409,0.1449,0.1526,0.1515,0.1763,0.1701,0.1722,0.1793,0.1994,0.2006,0.2016,0.2049,0.2068,0.2085,0,0,0,0,0,0,0.1032,0.1122,0.1125,0.1191,0.1263,0.1359,0.1404,0.1425,0.1516,0.1521,0.1575,0.1598,0.1742,0.177,0.17,0.1933,0.1879,0.1895,0.1897,0.1916,0.193,0.1933,0.1677,0,0,0,0,0,0.1025,0.1081,0.116,0.1216,0.1252,0.1322,0.1366,0.1403,0.1491,0.1528,0.1594,0.1687,0.1807,0.1857,0.196,0.2073,0.2095,0.214,0.2155,0.2166,0.219,0.2292,0.2316,0.2059,0.2059,0.2059,0,0,0.1036,0.1083,0.112,0.1211,0.1271,0.1361,0.1349,0.1433,0.1513,0.1535,0.1668,0.1744,0.1855,0.2001,0.2065,0.2026,0.225,0.2181,0.2189,0.2207,0.2306,0.233,0.2352,0.2067,0.2065,0.2064,0,0,0.1105,0.1119,0.1201,0.1255,0.1341,0.1392,0.1414,0.1515,0.1563,0.1693,0.1749,0.1874,0.2017,0.2127,0.2197,0.2359,0.2333,0.2378,0.2441,0.2539,0.256,0.2578,0.2608,0.2629,0.2372,0.2372,0.2372,0,0.1121,0.121,0.1241,0.1324,0.1376,0.1408,0.1505,0.1574,0.1702,0.1754,0.1745,0.2007,0.2095,0.2292,0.2361,0.2392,0.2407,0.2349,0.2552,0.2571,0.2589,0.2616,0.2639,0.2376,0.2375,0.2375,0.2375,0,0.1259,0.1314,0.1367,0.1478,0.1537,0.1622,0.1703,0.1768,0.181,0.1876,0.2051,0.2176,0.2318,0.238,0.2427,0.2613,0.2567,0.2559,0.2487,0.2617,0.2638,0.266,0.2381,0.2379,0.2378,0.2377,0,0,0.1366,0.145,0.1466,0.1496,0.1613,0.1668,0.1799,0.1921,0.1979,0.2103,0.2207,0.2444,0.2459,0.2546,0.261,0.2712,0.2857,0.2686,0.269,0.268,0.3019,0.2957,0.2974,0.2861,0.2866,0.287,0.2968,0,0.1477,0.1592,0.1631,0.1746,0.1813,0.1853,0.1954,0.205,0.2125,0.2224,0.2357,0.2483,0.2534,0.2584,0.271,0.282,0.2924,0.2828,0.2929,0.2932,0.2831,0.3003,0.2943,0.3024,0.299,0.2993,0.2996,0,0.1628,0.1664,0.1774,0.1823,0.1857,0.1926,0.2027,0.2118,0.2257,0.231,0.2445,0.2516,0.2714,0.2711,0.2967,0.2888,0.298,0.3052,0.3057,0.3005,0.2914,0.2903,0.3066,0.3034,0.303,0.3027,0.3025,0,0.1665,0.1768,0.1825,0.1855,0.1936,0.1979,0.2024,0.2145,0.2199,0.2345,0.2387,0.2598,0.2684,0.2857,0.3021,0.2991,0.3257,0.3222,0.3258,0.325,0.3229,0.3212,0.335,0.3429,0.3429,0.3429,0.3429,0,0.1768,0.181,0.1823,0.1854,0.1897,0.1959,0.2027,0.2095,0.2198,0.2262,0.2407,0.2497,0.2728,0.289,0.3036,0.3213,0.3272,0.3316,0.3307,0.324,0.3223,0.3215,0.3193,0.3432,0.3432,0.3431,0.343,0,0.1803,0.1829,0.1872,0.1911,0.1916,0.1933,0.1977,0.2019,0.2116,0.2202,0.2241,0.244,0.2636,0.2848,0.3118,0.321,0.3332,0.3442,0.3314,0.329,0.3252,0.3234,0.3196,0.3146,0.3484,0.3484,0.3484,0,0.1822,0.1852,0.1862,0.1856,0.1866,0.1884,0.1898,0.1973,0.201,0.2166,0.2201,0.2404,0.2548,0.2889,0.312,0.3354,0.3315,0.3406,0.3379,0.3288,0.3264,0.3081,0.3029,0.3354,0.3353,0.3352,0.3351,0,0.1833,0.1832,0.1837,0.182,0.1815,0.1808,0.1825,0.1838,0.1933,0.2009,0.2122,0.2242,0.2568,0.2794,0.3093,0.3245,0.326,0.3385,0.3369,0.3262,0.3001,0.2932,0.3192,0.3341,0.3342,0.3343,0.3343,0.3344,0.1802,0.1792,0.1783,0.1764,0.1746,0.1715,0.1695,0.173,0.1766,0.1858,0.2009,0.2161,0.2527,0.294,0.3061,0.325,0.3189,0.3264,0.3273,0.3109,0.301,0.321,0.3295,0.3296,0.3297,0.3297,0.3298,0,0.1744,0.1737,0.1723,0.1678,0.1619,0.1641,0.163,0.1611,0.162,0.1756,0.186,0.2188,0.2493,0.2796,0.3161,0.318,0.3054,0.3148,0.2933,0.2911,0.3193,0.314,0.3101,0.3101,0.3101,0.3101,0.3101,0.3101,0.1711,0.1678,0.1673,0.1554,0.1515,0.1435,0.1414,0.1415,0.1485,0.1609,0.1758,0.1928,0.2353,0.2886,0.3124,0.3103,0.2973,0.2832,0.2829,0.3098,0.311,0.312,0.3068,0.3015,0.3015,0.2439,0.2435,0.2432]},{"header":{"parameterUnit":"m.s-1","parameterCategory":2,"la1":30.2991,"la2":30.254,"lo1":-89.0895,"lo2":-89.0444,"dy":0.0017,"dx":0.0017,"nx":28,"ny":28,"refTime":"2024-02-03T09:00:00:Z","depth":"0","parameterNumber":3,"parameterNumberName":"V-component_of_CURRENTS"},"data":[0,0,0,0,0,0,0,0,0,0,0,0,0,0,0,0,0,0,0,0,0,0,0,0,0,0,0,0,0,0,0,0,0,0,0,0,0,0,0,0,0,0,0,0,0,0,0,0,0,0,0,0,0,0,0,0,0,0,0.0529,0.0529,0,0.0515,0.0515,0.0515,0.0499,0.0498,0.0498,0.0497,0.0458,0.0457,0.0457,0,0,0,0,0,0,0,0,0,0,0,0,0,0.0597,0.0595,0.0529,0.0529,0.0528,0.0515,0.0515,0.0515,0.0499,0.0498,0.0498,0.0497,0.0458,0.0457,0.0456,0,0,0,0,0,0,0,0,0,0,0,0,0,0.0576,0.0595,0.0529,0.0517,0.0516,0.0515,0.0515,0.0515,0.0499,0.0498,0.0498,0.0497,0.0458,0.0457,0.0456,0.0464,0,0,0.0453,0.0453,0,0,0,0,0,0,0,0,0.0577,0.0573,0.0519,0.0518,0.0516,0.0506,0.0524,0.0496,0.0499,0.0508,0.0497,0.0497,0.0471,0.0469,0.0471,0.0462,0.0461,0.0453,0.0453,0.0452,0.0452,0,0,0,0,0,0,0,0.0578,0.0574,0.0526,0.0519,0.0517,0.0531,0.0527,0.052,0.0494,0.0507,0.0505,0.05,0.047,0.0472,0.047,0.046,0.0453,0.0453,0.0452,0.0452,0.0533,0.0535,0,0,0,0,0,0,0.0573,0.0575,0.0526,0.0525,0.0543,0.053,0.0526,0.0512,0.0495,0.0491,0.0501,0.0499,0.0474,0.0471,0.0468,0.0557,0.0452,0.0452,0.0451,0.053,0.0533,0.0536,0,0,0,0,0,0,0.0574,0.0568,0.0527,0.0549,0.0544,0.0529,0.0514,0.0512,0.0518,0.049,0.0486,0.0509,0.0473,0.047,0.0494,0.0552,0.0451,0.045,0.0527,0.0531,0.0535,0.0682,0,0,0,0,0,0,0.0576,0.0569,0.0558,0.0548,0.0543,0.0546,0.0514,0.0512,0.0514,0.0513,0.0496,0.0491,0.0473,0.0496,0.0493,0.0549,0.045,0.0523,0.0529,0.0533,0.0674,0.0691,0.0705,0,0,0,0,0,0.0579,0.0575,0.0558,0.0552,0.0528,0.0547,0.0547,0.0535,0.0516,0.0535,0.0532,0.0492,0.0526,0.0498,0.0494,0.055,0.0521,0.0527,0.0533,0.0667,0.0688,0.0705,0,0,0,0,0,0,0.0599,0.0572,0.0554,0.054,0.0548,0.0544,0.0557,0.0542,0.0554,0.0554,0.0522,0.0519,0.0566,0.0536,0.0504,0.059,0.0519,0.0524,0.0622,0.0641,0.0657,0.0692,0.0449,0,0,0,0,0,0.0596,0.0586,0.0573,0.0566,0.0575,0.0566,0.0569,0.0566,0.0571,0.0574,0.0565,0.0565,0.0589,0.0595,0.0602,0.0641,0.0596,0.0676,0.0692,0.0705,0.0733,0.072,0.0737,0.0556,0.0556,0.0556,0,0,0.0612,0.0585,0.0586,0.057,0.0577,0.0623,0.0569,0.059,0.0639,0.0569,0.0632,0.0617,0.0611,0.067,0.0687,0.065,0.073,0.0713,0.0725,0.0745,0.0728,0.0745,0.0761,0.0561,0.056,0.0559,0,0,0.066,0.0612,0.0642,0.0651,0.0656,0.066,0.067,0.0679,0.0696,0.0746,0.0721,0.075,0.0762,0.0788,0.0799,0.0903,0.0814,0.0891,0.1001,0.0988,0.1002,0.1015,0.0961,0.0968,0.0899,0.0899,0.0899,0,0.0695,0.07,0.0659,0.0697,0.0721,0.0686,0.0755,0.0774,0.0792,0.0825,0.0789,0.085,0.0836,0.0927,0.0969,0.0944,0.0894,0.0929,0.1008,0.1019,0.1029,0.0972,0.0977,0.0907,0.0906,0.0905,0.0905,0,0.0775,0.0784,0.0808,0.0844,0.0869,0.0912,0.0935,0.0969,0.0973,0.0992,0.1067,0.1053,0.1088,0.1092,0.1066,0.1145,0.107,0.1027,0.0959,0.1056,0.0989,0.0992,0.0918,0.0916,0.0913,0.0911,0,0,0.0862,0.087,0.0878,0.0914,0.0946,0.098,0.107,0.1145,0.1207,0.1225,0.1311,0.1356,0.1322,0.1333,0.1294,0.1291,0.1312,0.1196,0.1191,0.1141,0.1244,0.1205,0.1202,0.1266,0.1268,0.127,0.116,0,0.0956,0.1028,0.1019,0.1125,0.1178,0.1182,0.1266,0.1323,0.1357,0.1425,0.1431,0.1485,0.1421,0.1429,0.1428,0.1346,0.1329,0.1344,0.116,0.1154,0.1107,0.1209,0.1189,0.1092,0.1162,0.1163,0.1163,0,0.1051,0.1078,0.118,0.125,0.1281,0.1345,0.1453,0.1523,0.1604,0.1629,0.1678,0.1656,0.1692,0.1599,0.1528,0.1529,0.1411,0.133,0.1322,0.1244,0.1123,0.101,0.1093,0.089,0.1166,0.1166,0.1165,0,0.1116,0.1198,0.127,0.1295,0.1377,0.1443,0.1499,0.1589,0.1663,0.1748,0.1793,0.1814,0.1816,0.1713,0.1559,0.1535,0.1437,0.1376,0.1228,0.122,0.1151,0.1136,0.1022,0.1319,0.1319,0.1319,0.132,0,0.1208,0.1273,0.1299,0.1346,0.1458,0.1497,0.1634,0.1689,0.1786,0.1884,0.1887,0.195,0.1841,0.177,0.161,0.1439,0.1472,0.1278,0.1215,0.1199,0.119,0.0967,0.0887,0.1315,0.1316,0.1317,0.1318,0,0.1278,0.129,0.1376,0.1454,0.1488,0.1566,0.17,0.1793,0.1864,0.1987,0.2016,0.2052,0.1969,0.1821,0.1645,0.1503,0.1222,0.125,0.1225,0.1164,0.0865,0.0796,0.066,0.0536,0.1097,0.1095,0.1094,0,0.1322,0.1366,0.1437,0.1485,0.1528,0.164,0.1727,0.1826,0.1922,0.2048,0.211,0.2088,0.2097,0.1841,0.1585,0.1318,0.1143,0.1112,0.1095,0.088,0.0755,0.0707,0.0608,0.1035,0.1034,0.1032,0.1031,0,0.1415,0.1419,0.1472,0.1556,0.1642,0.1756,0.188,0.1956,0.2074,0.2168,0.2266,0.2285,0.2076,0.1851,0.1506,0.1307,0.0986,0.108,0.0873,0.074,0.0665,0.0503,0.1036,0.1021,0.1022,0.1023,0.1023,0.1024,0.1469,0.1507,0.1552,0.1644,0.1731,0.1855,0.1954,0.2069,0.2206,0.2331,0.2359,0.2404,0.2098,0.1655,0.135,0.0824,0.0869,0.0679,0.0619,0.0593,0.048,0.0987,0.0897,0.0897,0.0897,0.0897,0.0898,0,0.1531,0.1569,0.1649,0.1744,0.1837,0.1885,0.2048,0.2139,0.2273,0.2387,0.2468,0.2389,0.1925,0.1473,0.0824,0.0454,0.0287,0.0243,0.0157,0.0079,0.0533,0.0535,0.0343,0.0344,0.0344,0.0344,0.0344,0.0344,0.1568,0.1639,0.1675,0.182,0.1886,0.203,0.2118,0.2231,0.2346,0.248,0.2554,0.2614,0.233,0.1152,0.0304,0.0058,-0.0254,-0.028,-0.0439,-0.0146,-0.011,-0.0077,-0.0096,-0.0417,-0.0418,-0.089,-0.0894,-0.0898]}],[{"header":{"parameterUnit":"m.s-1","parameterCategory":2,"la1":30.2991,"la2":30.254,"lo1":-89.0895,"lo2":-89.0444,"dy":0.0017,"dx":0.0017,"nx":28,"ny":28,"refTime":"2024-02-03T09:00:00:Z","depth":"2","parameterNumber":2,"parameterNumberName":"U-component_of_CURRENTS"},"data":[0,0,0,0,0,0,0,0,0,0,0,0,0,0,0,0,0,0,0,0,0,0,0,0,0,0,0,0,0,0,0,0,0,0,0,0,0,0,0,0,0,0,0,0,0,0,0,0,0,0,0,0,0,0,0,0,0,0,0.0607,0.0607,0,0.0559,0.0558,0.0557,0.0502,0.0502,0.0501,0.0501,0.0381,0.0378,0.0375,0,0,0,0,0,0,0,0,0,0,0,0,0,0.0623,0.0623,0.0607,0.0607,0.0607,0.0559,0.0558,0.0557,0.0502,0.0502,0.0501,0.0501,0.0382,0.0379,0.0375,0,0,0,0,0,0,0,0,0,0,0,0,0,0.0594,0.0622,0.0607,0.0578,0.0575,0.056,0.0558,0.0557,0.0502,0.0502,0.0501,0.0501,0.0383,0.0379,0.0375,0.0357,0,0,0.0361,0.0359,0,0,0,0,0,0,0,0,0.0596,0.0593,0.0582,0.058,0.0577,0.0541,0.052,0.0488,0.0502,0.0524,0.0501,0.0501,0.0432,0.0424,0.0408,0.0351,0.0346,0.0361,0.0358,0.0356,0.0355,0,0,0,0,0,0,0,0.0598,0.0595,0.0582,0.0583,0.0579,0.0558,0.0553,0.0514,0.0475,0.0522,0.0519,0.0523,0.0429,0.0413,0.0405,0.0344,0.0361,0.0357,0.0354,0.0353,0.0306,0.0307,0,0,0,0,0,0,0.0618,0.0597,0.0584,0.0581,0.0592,0.0559,0.0553,0.0548,0.0477,0.0468,0.0524,0.0521,0.0421,0.041,0.0401,0.0401,0.0356,0.0352,0.035,0.0304,0.0306,0.0308,0,0,0,0,0,0,0.0618,0.0617,0.0586,0.0593,0.0588,0.056,0.0555,0.0548,0.0531,0.048,0.0469,0.0515,0.042,0.0407,0.037,0.0394,0.035,0.0346,0.0303,0.0305,0.0307,0.0384,0,0,0,0,0,0,0.0618,0.0617,0.0614,0.0594,0.0589,0.0581,0.0556,0.0548,0.0537,0.0533,0.0469,0.0457,0.0418,0.0377,0.0366,0.0388,0.0343,0.0301,0.0304,0.0306,0.038,0.0388,0.0396,0,0,0,0,0,0.0619,0.0616,0.0614,0.0612,0.0588,0.0582,0.0576,0.0551,0.0538,0.0533,0.0492,0.0459,0.0386,0.0374,0.036,0.0382,0.03,0.0303,0.0306,0.0376,0.0387,0.0396,0,0,0,0,0,0,0.0616,0.0611,0.0607,0.0601,0.0598,0.0575,0.0565,0.0556,0.052,0.0509,0.046,0.0446,0.0427,0.0395,0.0383,0.038,0.0344,0.0345,0.0402,0.0412,0.042,0.0442,0.0339,0,0,0,0,0,0.0619,0.0615,0.0613,0.0607,0.0607,0.0588,0.0581,0.0568,0.0541,0.0524,0.0488,0.0453,0.043,0.0413,0.038,0.0367,0.038,0.038,0.0388,0.0395,0.0407,0.0461,0.0476,0.0318,0.0318,0.0318,0,0,0.0616,0.0614,0.061,0.0607,0.0596,0.0596,0.058,0.0571,0.057,0.0516,0.0493,0.047,0.0432,0.0422,0.0413,0.0397,0.0448,0.0399,0.0405,0.0413,0.0466,0.0482,0.0495,0.032,0.032,0.0319,0,0,0.0612,0.0607,0.0605,0.0606,0.0604,0.0597,0.0601,0.0585,0.0575,0.0559,0.053,0.0529,0.0476,0.0472,0.046,0.0494,0.0486,0.0486,0.0545,0.0597,0.0611,0.0623,0.0666,0.0682,0.0494,0.0494,0.0495,0,0.0604,0.0608,0.0604,0.0607,0.0612,0.0602,0.0608,0.0597,0.0574,0.0582,0.0558,0.0544,0.0507,0.0526,0.054,0.0514,0.054,0.0508,0.061,0.0622,0.0633,0.0674,0.069,0.0499,0.0498,0.0498,0.0497,0,0.0606,0.0609,0.0608,0.0612,0.0616,0.0617,0.0619,0.062,0.0614,0.0618,0.0635,0.0607,0.0612,0.0606,0.0576,0.0644,0.0636,0.0612,0.0588,0.0654,0.0692,0.0708,0.0504,0.0503,0.0502,0.0501,0,0,0.0578,0.0605,0.0602,0.0617,0.0621,0.0628,0.0636,0.0656,0.0682,0.0674,0.0719,0.0701,0.0717,0.0707,0.0693,0.0734,0.0831,0.0713,0.0714,0.0761,0.0954,0.094,0.0955,0.0831,0.0834,0.0836,0.0952,0,0.0577,0.06,0.0609,0.0628,0.0642,0.0651,0.0669,0.0688,0.0703,0.0743,0.0755,0.0784,0.0748,0.0771,0.0809,0.082,0.0874,0.0802,0.0878,0.0881,0.0864,0.0973,0.0889,0.0984,0.0966,0.0969,0.0971,0,0.0571,0.0592,0.0619,0.0662,0.0669,0.0681,0.073,0.0748,0.0801,0.0822,0.087,0.0881,0.0943,0.0903,0.0988,0.0947,0.0967,0.0974,0.0979,0.095,0.0896,0.0913,0.1012,0.0996,0.0994,0.0992,0.0991,0,0.0568,0.0596,0.0626,0.0636,0.0681,0.0701,0.0727,0.0776,0.0815,0.0892,0.0939,0.0999,0.1048,0.1085,0.1099,0.1061,0.1191,0.1137,0.1147,0.1145,0.108,0.1068,0.1221,0.1221,0.1221,0.1221,0.122,0,0.0569,0.0588,0.0631,0.0648,0.0693,0.072,0.0778,0.0815,0.0889,0.0955,0.0994,0.1061,0.1102,0.1165,0.1161,0.1215,0.125,0.1191,0.1191,0.1104,0.1093,0.1096,0.1079,0.1225,0.1224,0.1223,0.1222,0,0.0566,0.059,0.0628,0.0679,0.0695,0.0732,0.0804,0.0853,0.0923,0.1015,0.1052,0.1144,0.1234,0.1264,0.1335,0.1305,0.1342,0.1349,0.1242,0.1227,0.1243,0.123,0.1385,0.1386,0.1387,0.1387,0.1388,0,0.0573,0.0592,0.0649,0.0675,0.0698,0.0752,0.0793,0.0864,0.0918,0.1058,0.1106,0.1231,0.1302,0.1404,0.1395,0.1425,0.141,0.135,0.1258,0.1286,0.1269,0.1254,0.124,0.1205,0.1204,0.1203,0.1202,0,0.0585,0.0603,0.0639,0.0691,0.073,0.0782,0.0844,0.0888,0.0984,0.1066,0.119,0.1265,0.137,0.1377,0.1413,0.1395,0.1334,0.1333,0.1429,0.1167,0.1122,0.1102,0.1094,0.1194,0.1195,0.1196,0.1196,0.1196,0.0592,0.0618,0.0661,0.0709,0.0757,0.0807,0.0839,0.0903,0.0989,0.1084,0.1176,0.125,0.1298,0.1313,0.1296,0.1275,0.1337,0.1264,0.1264,0.1265,0.1215,0.1173,0.1245,0.1246,0.1247,0.1248,0.1249,0,0.0595,0.0628,0.0676,0.0729,0.0773,0.0804,0.087,0.0878,0.095,0.1048,0.1124,0.1089,0.1124,0.1172,0.1139,0.1138,0.1088,0.1091,0.1022,0.1032,0.1041,0.0975,0.0944,0.0943,0.0941,0.094,0,0,0.0596,0.0632,0.0658,0.0724,0.0768,0.0806,0.0836,0.0845,0.0895,0.0928,0.0974,0.105,0.1149,0.1025,0.1023,0.099,0.0992,0.095,0.1202,0.1133,0.1139,0.1158,0.1071,0,0,0,0,0]},{"header":{"parameterUnit":"m.s-1","parameterCategory":2,"la1":30.2991,"la2":30.254,"lo1":-89.0895,"lo2":-89.0444,"dy":0.0017,"dx":0.0017,"nx":28,"ny":28,"refTime":"2024-02-03T09:00:00:Z","depth":"2","parameterNumber":3,"parameterNumberName":"V-component_of_CURRENTS"},"data":[0,0,0,0,0,0,0,0,0,0,0,0,0,0,0,0,0,0,0,0,0,0,0,0,0,0,0,0,0,0,0,0,0,0,0,0,0,0,0,0,0,0,0,0,0,0,0,0,0,0,0,0,0,0,0,0,0,0,-0.0669,-0.0669,0,-0.0655,-0.0655,-0.0655,-0.065,-0.065,-0.065,-0.065,-0.0554,-0.0551,-0.0549,0,0,0,0,0,0,0,0,0,0,0,0,0,-0.0683,-0.0683,-0.0669,-0.0669,-0.0669,-0.0655,-0.0655,-0.0655,-0.065,-0.065,-0.065,-0.065,-0.0555,-0.0552,-0.0548,0,0,0,0,0,0,0,0,0,0,0,0,0,-0.0674,-0.0682,-0.067,-0.0664,-0.0664,-0.0655,-0.0655,-0.0655,-0.065,-0.065,-0.065,-0.065,-0.0556,-0.0552,-0.0548,-0.0525,0,0,-0.0536,-0.0535,0,0,0,0,0,0,0,0,-0.0675,-0.0674,-0.0665,-0.0665,-0.0664,-0.0654,-0.0625,-0.0607,-0.065,-0.0656,-0.065,-0.065,-0.0579,-0.0573,-0.0573,-0.052,-0.0516,-0.0536,-0.0534,-0.0532,-0.0531,0,0,0,0,0,0,0,-0.0675,-0.0674,-0.0665,-0.0665,-0.0664,-0.066,-0.0659,-0.0622,-0.0617,-0.0655,-0.0655,-0.0652,-0.0578,-0.0577,-0.057,-0.0514,-0.0536,-0.0533,-0.053,-0.0529,-0.0445,-0.0445,0,0,0,0,0,0,-0.0676,-0.0675,-0.0665,-0.0664,-0.0669,-0.0659,-0.0658,-0.0658,-0.0619,-0.0613,-0.0652,-0.0652,-0.0583,-0.0575,-0.0567,-0.0524,-0.0532,-0.0528,-0.0526,-0.0445,-0.0445,-0.0445,0,0,0,0,0,0,-0.0677,-0.0676,-0.0666,-0.0669,-0.0667,-0.0659,-0.0659,-0.0657,-0.0656,-0.0617,-0.0611,-0.0652,-0.0583,-0.0572,-0.0539,-0.0521,-0.0527,-0.0523,-0.0445,-0.0445,-0.0445,-0.0447,0,0,0,0,0,0,-0.0677,-0.0676,-0.0676,-0.0669,-0.0667,-0.066,-0.0659,-0.0657,-0.0654,-0.0654,-0.0615,-0.0606,-0.0582,-0.0545,-0.0535,-0.0516,-0.052,-0.0445,-0.0445,-0.0445,-0.0447,-0.0447,-0.0447,0,0,0,0,0,-0.0678,-0.0673,-0.0676,-0.0675,-0.0667,-0.0659,-0.0658,-0.0653,-0.0654,-0.0652,-0.063,-0.0607,-0.0539,-0.0541,-0.053,-0.0509,-0.0445,-0.0445,-0.0445,-0.0447,-0.0447,-0.0447,0,0,0,0,0,0,-0.0671,-0.0671,-0.0675,-0.0669,-0.0666,-0.0658,-0.0653,-0.0654,-0.0638,-0.0633,-0.0604,-0.0593,-0.0559,-0.0539,-0.0543,-0.0489,-0.0489,-0.0487,-0.0494,-0.0494,-0.0495,-0.0487,-0.0517,0,0,0,0,0,-0.0673,-0.0672,-0.0671,-0.0665,-0.0664,-0.0661,-0.0658,-0.0655,-0.064,-0.0634,-0.0608,-0.058,-0.0551,-0.0528,-0.0501,-0.0465,-0.0465,-0.0448,-0.0448,-0.0449,-0.0437,-0.0438,-0.0437,-0.0446,-0.0446,-0.0446,0,0,-0.0667,-0.0667,-0.0666,-0.0665,-0.0661,-0.0649,-0.0659,-0.0651,-0.0637,-0.0623,-0.0591,-0.0577,-0.0545,-0.051,-0.0493,-0.0488,-0.0449,-0.0449,-0.0449,-0.0437,-0.0438,-0.0437,-0.0436,-0.0446,-0.0446,-0.0446,0,0,-0.0648,-0.0657,-0.0649,-0.0648,-0.0644,-0.0641,-0.064,-0.0633,-0.0627,-0.0601,-0.0591,-0.0572,-0.0522,-0.0501,-0.0482,-0.0468,-0.0456,-0.0459,-0.0442,-0.0443,-0.0442,-0.0441,-0.0455,-0.0455,-0.0453,-0.0453,-0.0453,0,-0.0641,-0.0631,-0.0644,-0.0633,-0.0625,-0.0637,-0.0618,-0.0614,-0.0596,-0.0583,-0.0588,-0.0536,-0.0516,-0.0474,-0.0472,-0.0465,-0.047,-0.0441,-0.0443,-0.0442,-0.0441,-0.0455,-0.0455,-0.0453,-0.0453,-0.0453,-0.0453,0,-0.0617,-0.0608,-0.0601,-0.0593,-0.0587,-0.0575,-0.0572,-0.0562,-0.0558,-0.0551,-0.0521,-0.0508,-0.0473,-0.0472,-0.0462,-0.044,-0.0448,-0.0449,-0.0441,-0.044,-0.0455,-0.0456,-0.0453,-0.0453,-0.0453,-0.0453,0,0,-0.06,-0.0586,-0.0583,-0.0567,-0.0565,-0.0552,-0.0533,-0.0513,-0.0489,-0.0489,-0.0458,-0.0437,-0.044,-0.0421,-0.0417,-0.042,-0.0429,-0.0428,-0.0428,-0.044,-0.0441,-0.0459,-0.0461,-0.0431,-0.043,-0.043,-0.0459,0,-0.0575,-0.0543,-0.0545,-0.0508,-0.0488,-0.0492,-0.0467,-0.0454,-0.0444,-0.042,-0.0424,-0.0393,-0.0417,-0.0398,-0.0408,-0.0418,-0.0427,-0.0421,-0.044,-0.0441,-0.0456,-0.0461,-0.044,-0.0465,-0.046,-0.046,-0.046,0,-0.0549,-0.053,-0.049,-0.0454,-0.0445,-0.0423,-0.0385,-0.0366,-0.0347,-0.0339,-0.033,-0.0334,-0.0332,-0.0357,-0.0384,-0.0379,-0.0405,-0.0427,-0.0428,-0.0439,-0.0459,-0.0462,-0.0465,-0.046,-0.046,-0.046,-0.046,0,-0.0524,-0.0489,-0.0453,-0.0444,-0.0409,-0.0382,-0.036,-0.0335,-0.0306,-0.0286,-0.0265,-0.0277,-0.0267,-0.0311,-0.0363,-0.0367,-0.0405,-0.0415,-0.0461,-0.0463,-0.0445,-0.0446,-0.0435,-0.0435,-0.0434,-0.0434,-0.0434,0,-0.0494,-0.0463,-0.0433,-0.0411,-0.0355,-0.0346,-0.0284,-0.0267,-0.0235,-0.019,-0.0217,-0.0194,-0.0253,-0.0284,-0.0347,-0.0408,-0.0394,-0.0456,-0.0468,-0.0448,-0.0448,-0.0438,-0.0438,-0.0436,-0.0435,-0.0435,-0.0435,0,-0.0464,-0.0451,-0.0403,-0.0359,-0.0338,-0.0296,-0.0232,-0.019,-0.017,-0.0114,-0.0104,-0.0122,-0.0167,-0.0244,-0.0312,-0.0372,-0.0439,-0.0464,-0.0445,-0.0455,-0.0502,-0.0502,-0.0514,-0.0515,-0.0516,-0.0516,-0.0517,0,-0.0441,-0.0416,-0.0361,-0.0324,-0.0297,-0.0236,-0.0189,-0.0156,-0.0115,-0.0071,-0.0044,-0.0068,-0.0087,-0.0214,-0.032,-0.0434,-0.0448,-0.0487,-0.0489,-0.0498,-0.0508,-0.0507,-0.0506,-0.0473,-0.0473,-0.0473,-0.0473,0,-0.0393,-0.0379,-0.0341,-0.027,-0.0215,-0.0153,-0.0088,-0.0051,-0.0009,0.0031,0.0064,0.005,-0.0063,-0.0174,-0.033,-0.0408,-0.0471,-0.0492,-0.0494,-0.0458,-0.0461,-0.0471,-0.0471,-0.0474,-0.0474,-0.0474,-0.0474,-0.0474,-0.0352,-0.0321,-0.0273,-0.0205,-0.0143,-0.0073,-0.0015,0.0038,0.0102,0.0164,0.0133,0.0133,-0.0003,-0.019,-0.0329,-0.0462,-0.0473,-0.0515,-0.0513,-0.0512,-0.0503,-0.0508,-0.0528,-0.0529,-0.0529,-0.0529,-0.0529,0,-0.0289,-0.0262,-0.0203,-0.0122,-0.005,-0.0025,0.0056,0.0098,0.0174,0.0219,0.024,0.0147,0.0008,-0.0138,-0.0335,-0.0471,-0.047,-0.0507,-0.0474,-0.0474,-0.0474,-0.0462,-0.0477,-0.0477,-0.0477,-0.0477,0,0,-0.025,-0.0192,-0.0172,-0.0052,0.0011,0.0109,0.0158,0.0198,0.0236,0.0285,0.0309,0.026,0.007,-0.0051,-0.0244,-0.0355,-0.0379,-0.0374,-0.0408,-0.0349,-0.0346,-0.0476,-0.0458,0,0,0,0,0]}],[{"header":{"parameterUnit":"m.s-1","parameterCategory":2,"la1":30.2991,"la2":30.254,"lo1":-89.0895,"lo2":-89.0444,"dy":0.0017,"dx":0.0017,"nx":28,"ny":28,"refTime":"2024-02-03T09:00:00:Z","depth":"4","parameterNumber":2,"parameterNumberName":"U-component_of_CURRENTS"},"data":[0,0,0,0,0,0,0,0,0,0,0,0,0,0,0,0,0,0,0,0,0,0,0,0,0,0,0,0,0,0,0,0,0,0,0,0,0,0,0,0,0,0,0,0,0,0,0,0,0,0,0,0,0,0,0,0,0,0,0.0437,0.0437,0,0.0444,0.0445,0.0445,0.0466,0.0466,0.0467,0.0467,0.0503,0.0504,0.0504,0,0,0,0,0,0,0,0,0,0,0,0,0,0.0442,0.0442,0.0437,0.0437,0.0437,0.0444,0.0445,0.0445,0.0466,0.0466,0.0467,0.0467,0.0503,0.0504,0.0504,0,0,0,0,0,0,0,0,0,0,0,0,0,0.0446,0.0442,0.0437,0.0447,0.0447,0.0444,0.0445,0.0445,0.0466,0.0466,0.0467,0.0467,0.0502,0.0504,0.0505,0.0504,0,0,0.0508,0.0508,0,0,0,0,0,0,0,0,0.0445,0.0446,0.0445,0.0446,0.0447,0.0453,0.0459,0.0465,0.0466,0.0462,0.0467,0.0467,0.0487,0.0489,0.0493,0.0506,0.0507,0.0508,0.0509,0.0509,0.0509,0,0,0,0,0,0,0,0.0445,0.0445,0.0443,0.0445,0.0446,0.045,0.0451,0.0461,0.0475,0.0462,0.0463,0.046,0.0488,0.0492,0.0494,0.0508,0.0508,0.0509,0.051,0.051,0.0559,0.0559,0,0,0,0,0,0,0.0439,0.0445,0.0442,0.0442,0.0444,0.0449,0.0451,0.0452,0.0474,0.0476,0.0459,0.0461,0.049,0.0493,0.0495,0.0539,0.0509,0.051,0.0511,0.0558,0.0559,0.0559,0,0,0,0,0,0,0.0439,0.0439,0.0442,0.0442,0.0442,0.0449,0.045,0.0452,0.0467,0.0471,0.0475,0.0473,0.049,0.0494,0.0512,0.0539,0.0511,0.0512,0.0557,0.0558,0.0559,0.06,0,0,0,0,0,0,0.0439,0.0439,0.0446,0.0441,0.0442,0.0448,0.045,0.0452,0.0463,0.0465,0.0484,0.0487,0.0491,0.051,0.0513,0.054,0.0513,0.0556,0.0558,0.0559,0.0597,0.0602,0.0605,0,0,0,0,0,0.0439,0.0444,0.0446,0.0446,0.0449,0.0448,0.0449,0.0456,0.0463,0.0472,0.0483,0.0487,0.052,0.0511,0.0515,0.0543,0.0556,0.0557,0.0559,0.0596,0.0601,0.0605,0,0,0,0,0,0,0.0448,0.0446,0.0449,0.0453,0.0454,0.0451,0.0459,0.0462,0.0478,0.0487,0.0492,0.0495,0.052,0.0522,0.0513,0.0559,0.054,0.0542,0.0567,0.0572,0.0576,0.0572,0.0513,0,0,0,0,0,0.0452,0.0457,0.0454,0.0458,0.046,0.0463,0.0466,0.0471,0.0478,0.0487,0.0501,0.0515,0.0526,0.0542,0.0549,0.0575,0.057,0.0596,0.06,0.0603,0.0602,0.0619,0.0625,0.0564,0.0564,0.0564,0,0,0.0454,0.0455,0.0458,0.046,0.0464,0.0473,0.0467,0.0477,0.0492,0.0488,0.0522,0.0527,0.0533,0.0561,0.0574,0.057,0.0617,0.0605,0.0608,0.0604,0.0621,0.0627,0.0633,0.0565,0.0565,0.0565,0,0,0.0458,0.0466,0.0472,0.0478,0.0485,0.0487,0.0492,0.0501,0.0517,0.054,0.0541,0.0558,0.0585,0.0593,0.0599,0.0628,0.0631,0.0641,0.067,0.0688,0.0693,0.0697,0.0695,0.0699,0.0652,0.0652,0.0652,0,0.0461,0.047,0.0473,0.0484,0.049,0.0495,0.0505,0.0521,0.0538,0.0553,0.0558,0.0591,0.0597,0.0624,0.0638,0.0639,0.0645,0.0653,0.0694,0.0698,0.0702,0.0699,0.0703,0.0654,0.0654,0.0654,0.0654,0,0.0467,0.0482,0.0488,0.0504,0.0512,0.0522,0.0538,0.0562,0.0582,0.0593,0.0627,0.0635,0.0656,0.0665,0.0664,0.0699,0.0693,0.069,0.0682,0.0711,0.0705,0.0709,0.0657,0.0657,0.0656,0.0655,0,0,0.0443,0.0483,0.0487,0.0504,0.0525,0.0532,0.0565,0.0588,0.0614,0.0642,0.0673,0.0695,0.0703,0.071,0.0715,0.0734,0.0765,0.0734,0.0734,0.0733,0.08,0.0785,0.0786,0.0781,0.0782,0.0783,0.0784,0,0.0443,0.0473,0.0491,0.0521,0.0534,0.0559,0.059,0.0617,0.0642,0.0678,0.0696,0.073,0.0721,0.0745,0.0759,0.0762,0.0777,0.0764,0.0771,0.0771,0.0755,0.0791,0.0786,0.0786,0.0787,0.0787,0.0788,0,0.0433,0.0457,0.0487,0.0536,0.0545,0.0571,0.0616,0.0646,0.0693,0.0717,0.0749,0.0766,0.0799,0.0792,0.0811,0.081,0.0809,0.0807,0.0807,0.078,0.0762,0.0752,0.0794,0.0793,0.0793,0.0792,0.0792,0,0.0405,0.0452,0.048,0.0495,0.0549,0.0579,0.0615,0.066,0.069,0.0753,0.0779,0.0812,0.084,0.0848,0.0852,0.0843,0.0867,0.085,0.0828,0.0826,0.082,0.0815,0.0864,0.0864,0.0864,0.0864,0.0864,0,0.039,0.0412,0.0478,0.0493,0.0534,0.0579,0.0626,0.0669,0.0725,0.0757,0.0805,0.0831,0.0861,0.0879,0.087,0.0863,0.0884,0.0836,0.0833,0.0836,0.0833,0.0822,0.0817,0.0864,0.0864,0.0864,0.0864,0,0.0355,0.0396,0.0428,0.0496,0.0522,0.0555,0.0635,0.0664,0.0729,0.0774,0.0804,0.0858,0.089,0.0903,0.0917,0.0886,0.0883,0.0875,0.0876,0.0871,0.0818,0.0815,0.0841,0.084,0.084,0.084,0.084,0,0.0344,0.0357,0.0423,0.0446,0.0482,0.0542,0.0579,0.0659,0.0688,0.0779,0.0793,0.0859,0.0887,0.0883,0.0905,0.0899,0.0889,0.0875,0.0845,0.0826,0.0819,0.0817,0.0815,0.0839,0.0839,0.0839,0.0839,0,0.0316,0.0338,0.0366,0.0413,0.0457,0.05,0.0565,0.0586,0.0675,0.0731,0.0778,0.0812,0.0846,0.0863,0.0879,0.0868,0.0879,0.0871,0.0871,0.0842,0.0824,0.0817,0.0815,0.0838,0.0838,0.0838,0.0838,0,0.0292,0.03,0.0337,0.0378,0.0423,0.0457,0.0496,0.0549,0.0596,0.07,0.0712,0.0781,0.0835,0.0847,0.0856,0.086,0.0838,0.08,0.0803,0.0804,0.0796,0.0768,0.0768,0,0,0,0,0,0.0272,0.0279,0.0305,0.0348,0.0389,0.0422,0.0484,0.0524,0.0607,0.0624,0.0672,0.0709,0.0752,0.0785,0.078,0.0834,0.0834,0.0825,0.0789,0.0832,0.0833,0.0829,0,0,0,0,0,0,0.0259,0.0276,0.0289,0.0317,0.0343,0.0388,0.0428,0.0481,0.0499,0.0582,0.0606,0.0671,0.0714,0.0747,0.0767,0.0778,0.0743,0.087,0.0869,0.0831,0.0832,0.0833,0.083,0,0,0,0,0]},{"header":{"parameterUnit":"m.s-1","parameterCategory":2,"la1":30.2991,"la2":30.254,"lo1":-89.0895,"lo2":-89.0444,"dy":0.0017,"dx":0.0017,"nx":28,"ny":28,"refTime":"2024-02-03T09:00:00:Z","depth":"4","parameterNumber":3,"parameterNumberName":"V-component_of_CURRENTS"},"data":[0,0,0,0,0,0,0,0,0,0,0,0,0,0,0,0,0,0,0,0,0,0,0,0,0,0,0,0,0,0,0,0,0,0,0,0,0,0,0,0,0,0,0,0,0,0,0,0,0,0,0,0,0,0,0,0,0,0,-0.0156,-0.0156,0,-0.0167,-0.0167,-0.0167,-0.0207,-0.0208,-0.0209,-0.0209,-0.0271,-0.0272,-0.0273,0,0,0,0,0,0,0,0,0,0,0,0,0,-0.0194,-0.0194,-0.0156,-0.0156,-0.0156,-0.0167,-0.0167,-0.0167,-0.0207,-0.0208,-0.0209,-0.021,-0.0271,-0.0272,-0.0273,0,0,0,0,0,0,0,0,0,0,0,0,0,-0.0191,-0.0193,-0.0156,-0.0175,-0.0177,-0.0167,-0.0167,-0.0167,-0.0207,-0.0208,-0.0209,-0.021,-0.027,-0.0272,-0.0273,-0.0261,0,0,-0.0278,-0.0279,0,0,0,0,0,0,0,0,-0.0191,-0.019,-0.0172,-0.0174,-0.0176,-0.0185,-0.0203,-0.0201,-0.0207,-0.0198,-0.0209,-0.021,-0.0245,-0.0248,-0.0251,-0.0264,-0.0267,-0.0278,-0.0279,-0.028,-0.028,0,0,0,0,0,0,0,-0.0191,-0.0189,-0.0162,-0.0172,-0.0174,-0.0192,-0.0192,-0.0203,-0.0218,-0.0199,-0.0201,-0.0198,-0.0247,-0.0249,-0.0252,-0.0268,-0.0278,-0.0279,-0.028,-0.0281,-0.0337,-0.0338,0,0,0,0,0,0,-0.0182,-0.0189,-0.0162,-0.0162,-0.0184,-0.019,-0.0191,-0.0183,-0.0217,-0.0222,-0.0197,-0.02,-0.0246,-0.0251,-0.0255,-0.0287,-0.028,-0.0281,-0.0282,-0.0337,-0.0337,-0.0338,0,0,0,0,0,0,-0.0183,-0.018,-0.0161,-0.0175,-0.0174,-0.0188,-0.0178,-0.0182,-0.0193,-0.0215,-0.0222,-0.0205,-0.0247,-0.0253,-0.0276,-0.0288,-0.0282,-0.0283,-0.0336,-0.0337,-0.0338,-0.0323,0,0,0,0,0,0,-0.0184,-0.018,-0.0174,-0.0174,-0.0172,-0.0154,-0.0177,-0.0182,-0.0188,-0.0192,-0.0223,-0.023,-0.0248,-0.0273,-0.0277,-0.029,-0.0284,-0.0335,-0.0336,-0.0337,-0.0323,-0.0324,-0.0324,0,0,0,0,0,-0.0185,-0.0165,-0.0174,-0.0171,-0.0163,-0.0153,-0.0154,-0.017,-0.0187,-0.0185,-0.0216,-0.0229,-0.0284,-0.0274,-0.0279,-0.0293,-0.0335,-0.0336,-0.0337,-0.0323,-0.0324,-0.0324,0,0,0,0,0,0,-0.0181,-0.0167,-0.0177,-0.0155,-0.0156,-0.0159,-0.0154,-0.0169,-0.019,-0.0199,-0.0229,-0.0237,-0.0264,-0.0278,-0.0267,-0.0314,-0.0314,-0.0317,-0.0302,-0.0303,-0.0303,-0.0298,-0.0285,0,0,0,0,0,-0.0175,-0.0158,-0.0155,-0.014,-0.0137,-0.0149,-0.0149,-0.016,-0.0174,-0.0184,-0.0213,-0.0244,-0.027,-0.0286,-0.0308,-0.0325,-0.0332,-0.034,-0.0341,-0.0341,-0.0341,-0.037,-0.0373,-0.0343,-0.0343,-0.0343,0,0,-0.0172,-0.016,-0.0153,-0.0139,-0.014,-0.0133,-0.0152,-0.0146,-0.0155,-0.0187,-0.0213,-0.0244,-0.0275,-0.0302,-0.0316,-0.0316,-0.035,-0.0343,-0.0343,-0.0343,-0.0372,-0.0375,-0.0377,-0.0343,-0.0343,-0.0343,0,0,-0.015,-0.0143,-0.0123,-0.012,-0.0115,-0.012,-0.0119,-0.013,-0.0148,-0.0169,-0.0204,-0.0238,-0.0275,-0.0303,-0.0321,-0.0334,-0.035,-0.0352,-0.0351,-0.0379,-0.0382,-0.0384,-0.0375,-0.0377,-0.0353,-0.0353,-0.0353,0,-0.015,-0.0123,-0.0118,-0.0101,-0.01,-0.0114,-0.0104,-0.0117,-0.0142,-0.0161,-0.0176,-0.0249,-0.0273,-0.0312,-0.0326,-0.0335,-0.0347,-0.0343,-0.0379,-0.0382,-0.0384,-0.0375,-0.0377,-0.0353,-0.0353,-0.0353,-0.0353,0,-0.0113,-0.0102,-0.0088,-0.0074,-0.0071,-0.0062,-0.0076,-0.0091,-0.0119,-0.0143,-0.0191,-0.0231,-0.0279,-0.0295,-0.0316,-0.0356,-0.0355,-0.0373,-0.0373,-0.0386,-0.0375,-0.0378,-0.0352,-0.0352,-0.0352,-0.0353,0,0,-0.0095,-0.0068,-0.0068,-0.0066,-0.0058,-0.0055,-0.0063,-0.008,-0.0098,-0.014,-0.0172,-0.0228,-0.0264,-0.0288,-0.0325,-0.0353,-0.0375,-0.0377,-0.0379,-0.036,-0.0419,-0.0404,-0.0404,-0.041,-0.0411,-0.0411,-0.0395,0,-0.0075,-0.0046,-0.0037,-0.0027,-0.0017,-0.0032,-0.0041,-0.0063,-0.0091,-0.0126,-0.0179,-0.0224,-0.0257,-0.0291,-0.0324,-0.0367,-0.0386,-0.0376,-0.0417,-0.0417,-0.0396,-0.0409,-0.0414,-0.0397,-0.0398,-0.0398,-0.0399,0,-0.0049,-0.0031,-0.0015,-0.0014,-0.0012,-0.0012,-0.0034,-0.0045,-0.0089,-0.0116,-0.0167,-0.0211,-0.0266,-0.0293,-0.0359,-0.0357,-0.0389,-0.0414,-0.0414,-0.0409,-0.0407,-0.0389,-0.0403,-0.0403,-0.0402,-0.0402,-0.0402,0,-0.005,-0.0025,-0.0015,-0.0013,-0.0007,-0.0015,-0.0022,-0.0051,-0.0063,-0.0118,-0.0132,-0.0204,-0.0239,-0.0299,-0.0358,-0.0368,-0.0417,-0.0431,-0.0437,-0.0434,-0.0458,-0.0456,-0.0475,-0.0475,-0.0475,-0.0475,-0.0475,0,-0.0039,-0.0036,-0.0018,-0.0016,-0.0012,-0.0015,-0.0025,-0.0044,-0.0066,-0.0076,-0.0136,-0.0157,-0.025,-0.0292,-0.0347,-0.0393,-0.0408,-0.0434,-0.0438,-0.0448,-0.0446,-0.0458,-0.0456,-0.0474,-0.0474,-0.0474,-0.0474,0,-0.0055,-0.0041,-0.0029,-0.0017,-0.0015,-0.002,-0.0017,-0.0022,-0.0043,-0.0055,-0.0074,-0.0125,-0.018,-0.0251,-0.0334,-0.0366,-0.0419,-0.0433,-0.0411,-0.0415,-0.0412,-0.041,-0.0427,-0.0427,-0.0426,-0.0426,-0.0426,0,-0.0063,-0.0056,-0.0035,-0.0023,-0.002,-0.0018,-0.0014,-0.0023,-0.0018,-0.0032,-0.0034,-0.0087,-0.0129,-0.0206,-0.0295,-0.0379,-0.0401,-0.0412,-0.0441,-0.041,-0.0412,-0.041,-0.0409,-0.0425,-0.0425,-0.0425,-0.0425,0,-0.0073,-0.0067,-0.0053,-0.0029,-0.0017,-0.0001,0.0008,0.0017,0.0014,0.0003,0.0,-0.0053,-0.0103,-0.0189,-0.0257,-0.0325,-0.0399,-0.0408,-0.041,-0.0437,-0.0407,-0.041,-0.0408,-0.0423,-0.0424,-0.0424,-0.0424,0,-0.0084,-0.0074,-0.0051,-0.0031,-0.0012,0.0013,0.0018,0.0036,0.004,0.0037,0.0036,-0.0026,-0.0068,-0.016,-0.0225,-0.0289,-0.0309,-0.0325,-0.0332,-0.0334,-0.0326,-0.0276,-0.0254,0,0,0,0,0,-0.0089,-0.0072,-0.0051,-0.0022,-0.0003,0.0009,0.0035,0.0044,0.0051,0.0058,0.005,0.0002,-0.0088,-0.0131,-0.0191,-0.0232,-0.0331,-0.0304,-0.0356,-0.0415,-0.0417,-0.0424,0,0,0,0,0,0,-0.0088,-0.0069,-0.005,-0.0019,-0.0001,0.0024,0.0041,0.0051,0.0058,0.0058,0.0011,-0.0009,-0.0102,-0.0056,-0.0192,-0.0213,-0.0251,-0.035,-0.0351,-0.0415,-0.0416,-0.0417,-0.0425,0,0,0,0,0]}]]